Showing default

KUWAITSAT-1, 55103

Orbit data source: Space-Track

KUWAITSAT-1, 55103 is a payload satellite owned by Kuwait U. (KW) in SSO that was launched on Tue, 03 Jan 2023 UTC via an FALCON 9 launch vehicle from the Air Force Eastern Test Range (AFETR). Payload-class satellites include a variety of spacecraft equipped with specific instruments for various scientific and technological missions. These include communications satellites like Starlink; space stations such as the ISS; scientific satellites like the Hubble; Earth observation satellites from companies like Planet Labs, Umbra, and HawkEye 360; GPS; miniature CubeSats for education and research; and military/defense satellites.

Loading next visibility...
Identifier
55103, 2023-001CY
Orbit
SSO
Country
Flag of KWKW / KWT
Related business
Manufacturer
Kuwait U.
Mission
Operational Amateur Technology
Bus & Motor
CUBESAT 2U, Unknown motor
Mass
3 kg wet, 3 kg dry
Launch date (UTC)
2023-01-03 (3 years ago)
Launch vehicle
FALCON 9
Launch site
Air Force Eastern Test Range (AFETR)
Object type
Payload
Rocket body
Debris
Shape & HBR
Box, 0.1 m
Radar Cross Section
0.025 m², Medium (>0.1 m² and < 1m²)

Expand to show TLE details & history
Last TLE update: 10 hours ago

TLE from 10 hours ago
0 KUWAITSAT-1
1 55103U 23001CY  26166.13804010  .00021761  00000-0  39467-3 0  9997
2 55103  97.3252 236.9072 0009280  88.0763 272.1551 15.49575450192273
Epoch: 2026-06-15T03:18Z
TLE epoch observation values (Epoch: 2026-06-15T03:18:46.664Z)
Latitude
-0.00004°
Longitude
-76.21596°
Altitude
420.868 km
Speed
7.659 km/s
True Right ascension
15h 47m 37s
True Declination
0° 00' 00"
Sunlit
Object was in full shadow at epoch
Visualization orbit readout
Latitude
Unknown
Longitude
Unknown
Altitude
Unknown
Speed
Unknown
Apparent Right ascension
Unknown
Apparent Declination
Unknown
Sunlit
N/A
Visualization observer readout
Local Sidereal Time
00:01:45
Azimuth
Unknown
Elevation
Unknown
Doppler factor
Unknown
Orbital elements
Apogee altitude
421.194 km
Perigee altitude
408.586 km
Semi-major axis
6,793.027 km
Eccentricity
0.00093
Inclination
97.3252°
RAAN
236.9072°
Arg. of periapsis
88.0763°
True anomaly
272.04883°
Mean anomaly
272.1551°
Eccentric anomaly
272.10197°
Mean motion
3.87657 °/min
Orbital period
92.87 mins
BSTAR
0.00039467
Loading maneuver chart data...
Computing Atmospheric mass density...

Documentation

Showing up to 5 results
|